Wind_Speed
8 7 7 6 3 5 6 5 4 3 2 1 1 2 1 2 3 3 3 4 4 4 3 3 3 3 3 4 4 4 5 5 5 6 6 6 6 5 4 3 3 2 2 2 3 4 5 6 7
7 5 5 3 4 6 5 4 3 2 2 2 2 3 3 3 3 4 4 5 5 5 4 4 3 3 3 2 2 2 2 3 4 4 5 5 5 5 4 4 3 3 2 2 2 3 3 4 5
5 4 3 2 4 5 4 4 3 3 3 3 3 3 3 3 3 4 5 5 6 6 6 6 5 4 4 3 3 2 2 1 2 3 3 4 5 5 5 4 4 3 2 2 2 2 3 3 4
4 4 2 3 3 3 3 4 4 4 4 4 4 4 4 4 4 5 5 6 7 7 8 8 8 7 6 6 5 4 3 3 2 1 2 2 3 3 4 4 3 3 3 2 2 2 2 3 3
2 3 3 3 2 3 4 5 5 5 6 6 5 5 5 5 5 6 7 7 7 8 9 10 10 10 9 9 8 7 6 5 4 3 2 1 1 1 2 2 3 3 2 2 2 2 2 2 2
2 3 3 4 4 4 5 6 6 7 8 8 7 6 6 6 6 7 8 9 9 10 10 11 11 12 12 12 11 10 9 8 7 6 5 4 3 2 1 0 1 2 2 2 2 2 1 2 2
3 3 4 6 7 7 7 8 9 9 10 10 10 9 8 8 8 8 9 10 10 11 12 13 13 13 13 13 13 13 12 11 10 9 8 7 6 5 4 3 2 1 1 1 2 2 1 1 2
5 5 6 8 9 9 11 11 11 11 12 13 12 11 11 11 11 11 11 12 13 13 13 14 15 15 15 15 15 15 15 14 13 13 12 10 9 8 7 6 5 4 2 1 1 1 1 1 1
7 6 7 10 10 12 14 14 14 14 14 15 15 15 14 14 15 15 15 15 16 16 16 16 16 16 17 17 18 18 18 17 17 16 15 14 13 11 10 9 8 7 6 4 2 1 1 0 0
9 9 10 14 15 16 17 17 17 17 17 18 18 18 18 19 19 19 20 20 19 19 19 19 19 19 19 19 20 20 20 21 20 20 19 18 16 15 13 12 11 10 9 7 5 4 3 2 1
12 13 14 16 18 18 18 19 20 20 20 21 21 22 22 23 23 24 24 24 24 24 24 24 24 24 23 23 23 23 24 24 24 23 23 22 20 18 17 15 14 13 12 10 9 7 6 5 4
14 16 18 19 20 21 21 22 23 24 24 25 25 26 27 27 27 27 28 28 28 29 28 28 28 28 28 27 27 26 26 27 28 27 26 25 24 22 20 19 17 16 14 13 12 10 9 8 6
18 19 21 23 23 24 25 26 27 27 28 29 29 30 30 30 30 31 31 31 32 32 32 32 32 32 32 31 31 30 30 30 31 31 30 28 27 25 23 22 21 19 18 16 15 14 12 11 10
22 23 25 26 27 28 29 29 30 30 31 32 33 33 33 33 34 35 35 35 35 36 36 36 36 36 36 35 34 34 33 34 33 34 33 32 30 29 28 26 24 23 21 20 18 17 16 14 13
24 26 28 29 29 28 31 31 31 32 33 34 34 35 35 35 36 37 37 38 39 39 40 40 40 40 40 39 39 39 38 36 36 35 36 35 34 32 30 29 28 27 25 24 22 20 19 17 16
25 27 29 29 29 30 32 33 31 33 34 35 35 36 37 37 38 38 39 40 41 42 42 43 43 43 44 44 43 43 42 41 39 38 38 37 36 34 32 31 30 30 28 26 25 23 21 20 19
25 23 25 31 32 32 34 35 33 33 35 35 35 36 37 37 37 37 38 39 40 42 43 43 44 45 46 46 46 45 46 45 44 42 40 39 38 36 35 34 32 32 31 29 28 27 24 23 22
23 24 25 33 35 35 35 34 33 32 33 34 34 35 35 36 36 37 37 37 38 39 41 42 43 44 46 47 47 48 48 47 46 44 43 41 37 36 35 35 33 32 32 32 31 29 27 26 25
24 26 27 33 33 33 33 32 31 30 31 31 32 33 34 34 35 35 35 35 36 37 38 40 41 43 44 45 46 46 47 47 47 46 45 44 41 38 35 36 35 34 33 33 33 31 29 27 26
25 26 27 30 29 30 31 30 29 28 28 29 30 32 33 33 33 34 34 34 34 35 36 37 38 40 41 43 45 46 46 47 48 47 46 44 43 41 40 37 36 36 35 33 33 32 31 30 29
24 24 25 28 29 28 27 28 27 25 26 26 27 28 29 29 29 30 31 31 32 32 32 33 35 36 37 39 40 42 44 46 46 46 45 45 44 44 42 39 37 36 34 34 35 34 33 32 31
24 24 24 25 25 25 23 25 26 25 25 25 26 26 26 25 26 27 27 28 28 29 31 32 32 32 33 33 35 37 40 42 44 44 44 45 45 44 44 42 40 39 37 35 34 35 34 33 33
22 22 22 21 20 20 20 22 25 24 25 25 25 24 24 24 24 24 25 25 25 26 27 28 28 28 28 28 29 31 34 37 39 41 42 43 43 42 42 42 42 40 39 38 35 33 35 35 34
20 19 18 17 17 17 18 20 24 23 24 23 23 23 23 23 22 22 22 22 22 22 22 22 22 23 23 24 25 27 28 31 34 36 39 40 40 40 40 39 39 39 36 35 36 34 34 35 34
17 17 16 15 16 17 18 19 21 21 21 21 21 22 21 21 21 20 20 20 20 18 18 18 18 18 18 19 20 21 23 25 27 30 33 35 37 37 37 37 37 37 37 35 36 36 34 34 34
15 14 13 9 7 13 15 16 18 19 19 20 20 20 20 20 19 19 19 19 19 17 16 16 15 14 13 14 15 15 16 17 19 22 25 28 31 33 34 35 35 35 35 35 36 37 35 35 34
13 12 11 10 8 8 13 15 15 17 18 19 19 20 20 20 20 20 20 19 19 18 17 15 15 13 12 11 11 12 11 12 14 16 19 22 25 26 29 32 32 33 34 34 34 35 35 35 35
12 12 11 10 10 8 11 15 17 18 18 19 19 20 20 21 21 21 20 20 20 19 18 17 16 15 14 12 11 11 10 8 9 11 13 16 20 22 24 27 29 31 32 33 34 33 33 34 34
13 13 12 11 11 11 11 14 16 17 18 18 18 19 20 21 21 21 20 21 21 20 20 19 18 17 16 15 14 13 11 9 7 5 7 10 13 16 19 23 25 27 29 31 32 33 34 34 34
14 13 13 13 12 12 13 14 15 17 17 18 19 19 20 20 21 21 22 22 22 21 21 21 21 19 18 18 17 16 14 12 9 7 6 6 7 11 15 17 20 23 25 27 30 31 32 33 33
Wind_Direction
80 85 85 85 91 84 68 63 58 42 25 7 308 287 257 216 215 223 218 204 198 188 175 161 145 135 126 116 107 99 93 87 83 79 78 77 76 77 82 93 106 127 151 169 183 195 207 217 223
69 77 79 87 76 73 63 53 43 18 342 323 307 301 293 268 254 243 232 224 225 218 211 210 203 191 178 165 151 129 113 102 94 87 83 81 79 77 78 82 89 104 121 139 162 181 199 212 218
64 63 77 82 76 64 52 40 17 354 334 319 313 311 300 288 275 261 246 240 242 240 234 231 230 228 221 215 213 212 200 159 121 104 94 86 82 79 76 76 78 83 96 112 143 178 194 204 205
55 41 40 62 59 44 29 9 1 347 326 319 319 316 310 301 286 272 259 251 251 254 251 246 243 242 240 237 236 238 238 233 213 168 132 108 93 83 76 71 71 74 81 91 112 145 168 186 197
39 19 354 12 15 358 352 336 333 328 321 319 318 312 312 306 294 282 274 265 259 260 260 257 253 250 248 245 244 246 247 245 241 231 219 199 160 111 82 69 63 64 65 72 90 112 143 172 184
348 352 343 329 331 327 322 314 313 312 311 309 308 307 304 299 293 287 282 279 270 265 265 263 260 256 253 251 250 250 250 249 248 244 240 237 237 235 228 77 53 52 51 56 69 87 125 166 186
291 278 284 294 298 298 299 299 298 299 301 300 300 298 297 293 289 285 283 282 278 272 269 268 266 263 259 256 254 253 253 252 250 250 247 243 245 248 250 254 256 287 18 42 62 77 96 159 198
286 285 290 286 282 290 289 289 291 291 290 290 289 288 287 286 285 284 284 282 280 276 272 269 268 267 265 261 257 255 254 253 252 252 252 250 250 250 250 253 253 255 262 289 17 74 92 133 198
285 284 275 272 279 286 285 287 286 288 288 287 284 283 281 280 280 282 282 282 280 278 275 271 268 265 264 263 262 259 256 254 253 252 253 252 251 250 250 250 251 253 253 253 257 268 258 218 186
286 285 271 277 285 286 287 287 287 287 286 284 282 280 279 278 277 278 278 278 277 276 275 273 270 266 262 260 259 259 257 255 253 253 252 251 250 249 249 249 249 250 250 249 248 248 249 244 230
291 288 283 286 288 289 289 289 289 289 287 285 283 280 279 278 277 277 277 276 275 274 273 272 270 269 267 264 260 257 257 255 253 252 252 252 249 246 246 248 247 248 249 249 247 244 241 241 235
291 291 290 290 292 293 292 291 292 291 290 288 285 283 281 280 278 276 275 275 274 272 271 270 270 269 268 267 265 261 259 257 255 253 253 253 251 248 245 246 247 247 247 248 248 246 240 240 236
291 293 294 295 295 295 295 295 295 294 291 290 287 284 283 281 279 277 276 273 273 272 270 269 268 267 266 266 266 264 262 261 259 256 254 254 252 249 245 242 243 245 245 246 246 246 243 241 239
294 295 295 295 296 297 296 296 296 293 291 290 288 286 284 281 279 277 275 273 272 270 269 268 267 267 266 266 265 266 265 264 262 261 257 253 251 250 247 243 241 242 243 245 245 245 244 243 242
295 296 296 296 297 297 297 297 296 293 292 290 288 286 284 281 278 276 275 273 271 269 268 267 267 266 266 265 265 264 265 266 265 263 261 258 253 249 249 245 241 241 242 244 244 244 243 242 241
296 302 303 301 302 304 303 301 299 295 293 291 289 287 285 283 281 278 276 274 272 270 269 267 267 266 266 266 265 265 264 264 265 264 262 261 258 252 248 249 246 242 243 243 243 243 243 243 241
306 307 301 299 304 307 305 303 301 298 295 293 292 290 288 286 285 283 281 278 275 273 272 270 269 268 266 265 264 264 265 265 264 264 264 263 261 256 252 249 249 246 243 242 241 242 244 243 242
295 295 293 292 304 306 304 304 303 301 298 296 294 293 291 290 289 287 284 282 279 276 274 273 271 270 268 267 266 265 264 265 264 263 263 264 262 259 257 254 251 248 246 242 242 243 242 241 241
294 294 292 292 301 303 305 305 305 304 302 299 297 296 295 295 293 291 288 285 282 280 278 276 274 272 270 268 267 266 265 264 264 263 261 262 261 259 258 257 255 250 249 248 244 240 239 238 239
297 297 296 298 305 306 307 307 308 308 306 304 301 300 298 297 295 294 291 288 285 283 282 279 276 273 271 269 267 266 264 263 263 264 263 261 261 260 258 258 258 255 252 249 246 241 238 236 236
301 302 302 304 308 307 308 309 312 313 312 311 309 307 305 302 300 298 295 292 289 287 285 283 280 277 274 271 268 265 263 262 262 261 260 259 259 259 259 259 256 255 254 249 245 241 238 238 237
306 308 306 307 309 311 315 315 318 323 322 321 319 317 314 311 308 305 301 297 294 291 290 288 286 282 278 273 269 266 263 261 259 258 257 257 258 259 258 257 254 253 253 250 248 244 239 237 235
311 312 312 312 313 315 322 321 322 330 329 328 326 325 324 320 316 314 310 306 301 299 297 293 290 286 282 278 273 270 265 261 259 257 255 255 255 255 256 256 254 253 255 252 249 244 242 239 237
317 317 316 317 326 331 330 325 325 333 331 332 333 333 332 330 328 325 323 321 315 309 305 301 295 291 287 283 279 276 269 262 259 256 252 251 251 251 251 253 252 251 249 249 249 244 242 241 239
325 328 331 337 335 326 328 327 332 336 336 338 340 341 341 342 342 340 339 338 333 326 322 316 308 301 295 292 287 282 275 266 261 256 250 248 248 247 247 247 248 248 245 244 245 243 241 241 240
336 339 343 339 310 312 329 337 344 344 346 347 349 352 354 356 356 354 354 355 355 351 346 342 336 324 316 308 301 295 286 275 265 257 250 246 245 245 244 242 242 242 242 242 243 243 242 242 240
350 355 354 350 349 340 337 351 355 355 357 359 1 3 6 7 6 5 6 5 5 4 1 0 358 352 343 334 329 323 309 292 273 260 253 247 245 244 242 239 239 240 239 238 238 239 240 241 241
8 8 7 7 10 6 347 355 358 1 2 5 7 9 12 14 13 13 13 13 13 14 14 13 13 12 10 6 358 351 344 325 288 263 260 253 247 243 242 239 236 236 236 235 235 236 236 239 239
20 21 21 18 21 15 5 6 4 5 6 8 10 13 15 17 18 18 19 19 20 21 22 22 22 21 20 18 16 14 6 360 350 302 276 266 253 245 242 239 238 238 238 237 237 237 237 239 240
28 28 26 23 23 20 16 18 13 14 17 17 16 16 18 20 21 25 27 26 26 28 29 29 29 29 28 27 25 24 23 21 13 359 342 313 278 259 248 244 240 237 239 238 237 236 236 238 239
Height
5922 5921 5921 5921 5921 5920 5919 5919 5919 5919 5919 5919 5918 5918 5917 5918 5918 5920 5918 5917 5918 5917 5917 5917 5917 5917 5917 5917 5916 5916 5915 5914 5914 5913 5912 5911 5911 5910 5909 5909 5908 5908 5908 5908 5908 5908 5908 5909 5910
5923 5923 5923 5923 5921 5920 5921 5920 5920 5920 5920 5919 5919 5919 5918 5918 5918 5918 5917 5918 5918 5918 5918 5918 5918 5918 5918 5917 5917 5917 5916 5915 5915 5914 5913 5913 5912 5911 5910 5910 5909 5908 5908 5908 5908 5908 5908 5909 5909
5925 5924 5925 5924 5922 5922 5922 5921 5921 5921 5920 5920 5920 5920 5919 5918 5918 5917 5917 5918 5918 5918 5918 5917 5918 5918 5917 5917 5917 5917 5916 5916 5915 5915 5914 5914 5913 5912 5911 5910 5910 5909 5909 5908 5908 5908 5908 5908 5909
5926 5926 5925 5924 5923 5923 5922 5922 5921 5921 5921 5920 5920 5920 5918 5918 5918 5917 5917 5917 5917 5917 5917 5917 5917 5917 5917 5917 5917 5917 5916 5916 5916 5915 5915 5914 5914 5913 5912 5911 5911 5910 5909 5909 5908 5908 5908 5908 5908
5927 5927 5925 5924 5924 5923 5923 5922 5922 5922 5921 5920 5920 5919 5918 5918 5918 5917 5917 5917 5917 5917 5916 5916 5916 5916 5916 5916 5916 5916 5916 5916 5916 5915 5915 5914 5914 5913 5913 5912 5911 5910 5910 5909 5909 5908 5908 5908 5909
5928 5927 5926 5924 5924 5924 5923 5923 5922 5922 5921 5920 5920 5920 5919 5918 5917 5916 5916 5916 5916 5915 5915 5915 5915 5914 5914 5914 5915 5915 5915 5915 5915 5915 5915 5914 5914 5913 5913 5912 5912 5911 5910 5910 5909 5909 5908 5908 5908
5929 5928 5926 5925 5924 5924 5923 5923 5923 5922 5921 5920 5920 5919 5918 5917 5916 5916 5915 5914 5914 5914 5913 5913 5913 5912 5912 5913 5913 5913 5913 5913 5914 5914 5913 5913 5913 5913 5913 5912 5912 5911 5911 5910 5910 5909 5909 5909 5908
5927 5928 5926 5924 5923 5923 5922 5922 5921 5921 5920 5919 5919 5918 5917 5916 5915 5914 5913 5913 5912 5912 5911 5911 5910 5910 5910 5910 5910 5910 5911 5911 5911 5912 5912 5912 5912 5912 5912 5912 5911 5911 5911 5910 5910 5909 5909 5909 5908
5926 5927 5925 5922 5921 5922 5921 5921 5920 5919 5918 5917 5916 5915 5915 5914 5913 5912 5911 5910 5910 5909 5909 5908 5908 5907 5907 5907 5907 5907 5907 5908 5908 5909 5909 5910 5910 5910 5910 5910 5910 5910 5910 5910 5910 5909 5909 5909 5908
5925 5925 5924 5922 5921 5921 5919 5919 5918 5917 5916 5915 5914 5913 5912 5911 5910 5909 5908 5907 5906 5905 5905 5904 5904 5903 5903 5903 5903 5903 5903 5903 5904 5905 5906 5906 5907 5908 5908 5908 5908 5909 5909 5909 5909 5909 5909 5909 5908
5922 5922 5921 5920 5919 5918 5918 5916 5915 5914 5913 5912 5911 5909 5908 5907 5906 5905 5904 5903 5902 5901 5901 5900 5900 5899 5898 5898 5898 5899 5899 5899 5899 5900 5901 5902 5903 5904 5905 5905 5906 5906 5907 5907 5907 5908 5908 5908 5908
5920 5919 5918 5917 5916 5915 5914 5912 5911 5910 5909 5907 5905 5904 5903 5902 5901 5899 5899 5897 5896 5896 5895 5895 5894 5894 5893 5893 5893 5893 5893 5894 5894 5895 5896 5897 5898 5899 5901 5902 5902 5903 5904 5905 5905 5906 5906 5907 5907
5917 5916 5915 5914 5912 5911 5909 5908 5907 5905 5903 5901 5899 5898 5896 5895 5894 5892 5892 5891 5890 5889 5889 5888 5887 5887 5886 5886 5886 5887 5887 5888 5888 5889 5890 5891 5892 5894 5896 5897 5898 5900 5901 5902 5903 5904 5904 5905 5906
5914 5913 5911 5910 5908 5906 5905 5903 5902 5899 5896 5895 5893 5891 5889 5888 5886 5885 5884 5883 5882 5881 5881 5880 5880 5879 5879 5879 5879 5880 5880 5881 5881 5882 5883 5884 5886 5888 5890 5892 5893 5895 5896 5898 5899 5900 5902 5902 5903
5910 5909 5907 5905 5903 5902 5899 5898 5896 5892 5889 5887 5885 5883 5881 5879 5878 5876 5875 5874 5873 5872 5871 5871 5871 5871 5871 5871 5871 5872 5872 5873 5874 5875 5876 5877 5879 5881 5883 5885 5887 5889 5891 5893 5894 5896 5898 5899 5900
5907 5905 5902 5899 5897 5895 5894 5891 5889 5885 5883 5880 5877 5875 5873 5871 5869 5867 5866 5864 5863 5862 5861 5861 5861 5861 5861 5861 5862 5863 5863 5864 5866 5867 5868 5870 5871 5873 5875 5878 5880 5882 5885 5887 5889 5891 5893 5895 5896
5903 5902 5898 5893 5891 5889 5887 5884 5882 5879 5875 5872 5870 5867 5864 5862 5860 5858 5856 5855 5853 5852 5851 5851 5851 5851 5851 5851 5852 5853 5854 5855 5857 5858 5860 5862 5864 5866 5868 5870 5873 5875 5878 5881 5883 5885 5888 5890 5892
5901 5899 5896 5889 5886 5884 5881 5878 5875 5872 5868 5865 5862 5859 5856 5853 5851 5849 5847 5845 5843 5841 5840 5840 5840 5840 5840 5840 5841 5842 5844 5845 5847 5849 5851 5853 5855 5857 5860 5863 5865 5868 5871 5874 5877 5879 5881 5884 5886
5898 5896 5893 5886 5884 5880 5876 5872 5868 5866 5862 5858 5855 5851 5848 5846 5842 5840 5837 5835 5833 5832 5830 5829 5829 5828 5828 5829 5829 5831 5832 5834 5836 5838 5841 5844 5847 5849 5852 5855 5857 5860 5863 5866 5869 5872 5874 5877 5880
5893 5891 5887 5882 5879 5875 5871 5867 5863 5860 5856 5853 5849 5845 5841 5838 5835 5831 5829 5826 5824 5822 5820 5819 5818 5817 5817 5817 5817 5819 5820 5823 5825 5828 5831 5834 5837 5840 5844 5847 5850 5852 5856 5859 5861 5864 5867 5870 5873
5888 5886 5882 5878 5874 5870 5866 5862 5858 5855 5851 5847 5843 5839 5835 5831 5828 5824 5821 5818 5816 5814 5811 5809 5808 5806 5806 5805 5806 5807 5808 5810 5813 5816 5820 5823 5827 5831 5834 5838 5841 5844 5847 5851 5854 5857 5860 5863 5866
5884 5881 5877 5873 5869 5865 5863 5858 5853 5850 5846 5842 5838 5834 5830 5826 5822 5818 5815 5811 5808 5806 5803 5800 5798 5797 5795 5795 5795 5796 5797 5799 5801 5804 5808 5812 5816 5820 5824 5828 5832 5836 5839 5843 5846 5849 5853 5856 5859
5880 5876 5873 5869 5866 5862 5859 5855 5851 5848 5843 5839 5835 5831 5826 5822 5817 5813 5810 5806 5802 5799 5796 5793 5790 5788 5787 5786 5786 5786 5786 5788 5790 5793 5796 5800 5804 5809 5814 5818 5823 5826 5830 5834 5838 5841 5845 5848 5851
5876 5873 5870 5866 5863 5860 5857 5855 5849 5846 5842 5838 5833 5828 5823 5819 5814 5810 5805 5801 5797 5793 5790 5787 5784 5782 5780 5779 5778 5777 5777 5778 5780 5782 5785 5789 5794 5798 5803 5808 5812 5817 5821 5825 5829 5833 5836 5840 5843
5874 5870 5867 5863 5860 5859 5857 5854 5851 5846 5841 5836 5832 5827 5822 5817 5812 5807 5803 5798 5794 5789 5786 5782 5779 5777 5775 5773 5772 5771 5770 5770 5771 5773 5776 5780 5784 5788 5792 5798 5803 5807 5812 5816 5820 5825 5828 5832 5835
5871 5869 5866 5864 5862 5859 5855 5853 5850 5845 5841 5836 5831 5826 5821 5816 5812 5807 5802 5797 5793 5788 5784 5780 5777 5774 5771 5769 5768 5766 5765 5764 5765 5766 5768 5771 5775 5779 5783 5788 5793 5797 5802 5807 5811 5816 5819 5823 5827
5870 5867 5865 5863 5860 5858 5855 5852 5849 5845 5841 5836 5831 5827 5822 5817 5812 5807 5803 5798 5793 5789 5784 5780 5776 5773 5770 5768 5766 5764 5761 5760 5760 5761 5762 5765 5768 5771 5775 5779 5784 5788 5793 5798 5802 5806 5810 5814 5818
5871 5867 5865 5862 5860 5858 5856 5852 5849 5845 5841 5837 5832 5828 5823 5819 5814 5809 5804 5799 5795 5790 5786 5781 5777 5774 5770 5767 5765 5763 5760 5758 5758 5758 5759 5760 5762 5765 5768 5771 5776 5780 5784 5788 5793 5797 5801 5805 5809
5871 5868 5865 5863 5860 5858 5856 5855 5850 5846 5842 5838 5834 5830 5825 5821 5816 5811 5806 5802 5797 5792 5788 5783 5779 5776 5772 5769 5766 5763 5760 5758 5757 5757 5757 5757 5759 5761 5763 5766 5769 5773 5777 5781 5785 5789 5792 5796 5800
5872 5869 5867 5864 5861 5859 5856 5857 5851 5848 5844 5840 5836 5832 5827 5823 5819 5814 5809 5805 5800 5795 5791 5787 5782 5778 5775 5772 5768 5765 5762 5760 5759 5757 5757 5757 5758 5759 5760 5761 5764 5767 5770 5774 5777 5781 5784 5788 5792